N23017 KPBI-KBOS

Flight info

Callsign N23017
Flight time N/A
Altitude 29000
Route PBI FLL3 JAX J79 IRQ J79 FAK Q75 SAX ROBUC3 BOS
Aircraft SF50/L-SDGRWY/L

Departure

Time 2026-04-27 21:52
Airport Palm Beach International Airport (KPBI)

Arrival

Time N/A
Airport Boston Logan International Airport (KBOS)
Time Latitude Longitude Altitude Speed Heading
2026-04-27 21:40 26.68690 -80.09000 22 ft 0 kts 92°
2026-04-27 21:46 26.68696 -80.09011 22 ft 7 kts 273°
2026-04-27 21:46 26.68695 -80.09068 22 ft 10 kts 258°
2026-04-27 21:46 26.68631 -80.09090 20 ft 14 kts 183°
2026-04-27 21:47 26.68504 -80.09096 18 ft 19 kts 182°
2026-04-27 21:47 26.68422 -80.09138 19 ft 9 kts 230°
2026-04-27 21:47 26.68386 -80.09189 20 ft 10 kts 238°
2026-04-27 21:47 26.68365 -80.09276 20 ft 12 kts 269°
2026-04-27 21:48 26.68367 -80.09356 20 ft 9 kts 272°
2026-04-27 21:48 26.68372 -80.09468 22 ft 19 kts 273°
2026-04-27 21:48 26.68378 -80.09620 26 ft 23 kts 272°
2026-04-27 21:48 26.68386 -80.09784 27 ft 20 kts 273°
2026-04-27 21:49 26.68392 -80.09929 26 ft 19 kts 271°
2026-04-27 21:49 26.68397 -80.10066 27 ft 17 kts 274°
2026-04-27 21:49 26.68404 -80.10203 26 ft 21 kts 272°
2026-04-27 21:49 26.68410 -80.10357 22 ft 21 kts 273°
2026-04-27 21:50 26.68418 -80.10510 19 ft 18 kts 273°
2026-04-27 21:50 26.68423 -80.10637 17 ft 15 kts 272°
2026-04-27 21:50 26.68428 -80.10752 16 ft 9 kts 273°
2026-04-27 21:50 26.68417 -80.10800 16 ft 0 kts 228°
2026-04-27 21:51 26.68333 -80.10797 15 ft 18 kts 116°
2026-04-27 21:51 26.68305 -80.10469 19 ft 77 kts 93°
2026-04-27 21:51 26.68266 -80.09621 27 ft 140 kts 93°
2026-04-27 21:52 26.68213 -80.08336 203 ft 182 kts 92°
2026-04-27 21:52 26.68146 -80.06862 817 ft 191 kts 88°
2026-04-27 21:52 26.68123 -80.05452 1618 ft 179 kts 88°
2026-04-27 21:52 26.68097 -80.04109 2091 ft 166 kts 88°
2026-04-27 21:53 26.68066 -80.02849 2553 ft 163 kts 88°
2026-04-27 21:53 26.68099 -80.01602 3021 ft 158 kts 70°
2026-04-27 21:53 26.68822 -80.00763 3515 ft 151 kts 28°
2026-04-27 21:53 26.69834 -80.00475 4004 ft 154 kts 359°
2026-04-27 21:54 26.70886 -80.00817 4513 ft 163 kts 338°
2026-04-27 21:54 26.71958 -80.01312 5000 ft 170 kts 341°
2026-04-27 21:54 26.73081 -80.01760 5495 ft 173 kts 342°
2026-04-27 21:54 26.74227 -80.02228 5998 ft 177 kts 340°
2026-04-27 21:55 26.75402 -80.02710 6480 ft 182 kts 341°
2026-04-27 21:55 26.76591 -80.03197 6946 ft 182 kts 340°
2026-04-27 21:55 26.77764 -80.03679 7409 ft 182 kts 340°
2026-04-27 21:55 26.78953 -80.04161 7890 ft 182 kts 340°
2026-04-27 21:56 26.80138 -80.04643 8377 ft 181 kts 340°
2026-04-27 21:56 26.82416 -80.05571 9390 ft 157 kts 338°
2026-04-27 21:56 26.83390 -80.05962 9881 ft 141 kts 338°
2026-04-27 21:57 26.84262 -80.06318 10317 ft 127 kts 337°
2026-04-27 21:57 26.85046 -80.06638 10755 ft 113 kts 338°
2026-04-27 21:57 26.85512 -80.06836 11040 ft 103 kts 336°
2026-04-27 21:57 26.86133 -80.07083 11434 ft 86 kts 338°
2026-04-27 21:58 26.86681 -80.07311 11656 ft 82 kts 337°
2026-04-27 21:58 26.87301 -80.07561 11441 ft 118 kts 337°
2026-04-27 21:58 26.88064 -80.07874 11619 ft 119 kts 338°
2026-04-27 21:58 26.88854 -80.08198 11872 ft 126 kts 337°
2026-04-27 21:59 26.89772 -80.08572 12129 ft 153 kts 338°
2026-04-27 21:59 26.90850 -80.09012 12420 ft 176 kts 338°
2026-04-27 21:59 26.92073 -80.09512 12706 ft 197 kts 339°
2026-04-27 21:59 26.93465 -80.09857 12974 ft 217 kts
2026-04-27 22:00 26.94979 -80.09504 13242 ft 232 kts 12°
2026-04-27 22:00 26.96578 -80.09008 13513 ft 243 kts 13°
2026-04-27 22:00 26.98232 -80.08489 13779 ft 250 kts 12°
2026-04-27 22:00 26.99927 -80.07961 14021 ft 255 kts 13°
2026-04-27 22:01 27.01647 -80.07430 14256 ft 258 kts 12°
2026-04-27 22:01 27.03382 -80.06881 14488 ft 261 kts 14°
2026-04-27 22:01 27.05109 -80.06216 14721 ft 263 kts 17°
2026-04-27 22:01 27.06835 -80.05498 14965 ft 265 kts 18°
2026-04-27 22:02 27.08572 -80.04780 15195 ft 267 kts 18°
2026-04-27 22:02 27.10322 -80.04057 15431 ft 268 kts 18°
2026-04-27 22:02 27.12080 -80.03333 15680 ft 270 kts 17°
2026-04-27 22:02 27.13848 -80.02608 15924 ft 271 kts 17°
2026-04-27 22:03 27.15615 -80.01877 16188 ft 270 kts 18°
2026-04-27 22:03 27.17366 -80.01160 16563 ft 266 kts 17°
2026-04-27 22:03 27.19067 -80.00458 16928 ft 261 kts 18°
2026-04-27 22:03 27.20762 -79.99766 17303 ft 257 kts 17°
2026-04-27 22:04 27.22448 -79.99081 17688 ft 252 kts 18°
2026-04-27 22:04 27.24085 -79.98415 18077 ft 248 kts 17°
2026-04-27 22:04 27.25671 -79.97774 18441 ft 243 kts 17°
2026-04-27 22:04 27.27251 -79.97130 18778 ft 240 kts 17°
2026-04-27 22:05 27.28807 -79.96492 19117 ft 237 kts 17°
2026-04-27 22:05 27.30340 -79.95852 19461 ft 234 kts 17°
2026-04-27 22:05 27.31854 -79.95217 19809 ft 231 kts 17°
2026-04-27 22:05 27.33350 -79.94584 20162 ft 228 kts 17°
2026-04-27 22:06 27.34825 -79.93953 20517 ft 226 kts 17°
2026-04-27 22:06 27.36285 -79.93321 20881 ft 223 kts 17°
2026-04-27 22:06 27.37727 -79.92687 21247 ft 221 kts 17°
2026-04-27 22:06 27.39148 -79.92051 21617 ft 219 kts 17°
2026-04-27 22:07 27.40558 -79.91414 21997 ft 217 kts 17°
2026-04-27 22:07 27.41948 -79.90776 22378 ft 215 kts 17°
2026-04-27 22:07 27.43323 -79.90139 22762 ft 212 kts 17°
2026-04-27 22:07 27.44679 -79.89502 23153 ft 210 kts 17°
2026-04-27 22:08 27.46002 -79.88871 23537 ft 208 kts 17°
2026-04-27 22:08 27.47320 -79.88234 23887 ft 205 kts 17°
2026-04-27 22:08 27.48623 -79.87599 24218 ft 202 kts 17°
2026-04-27 22:08 27.49906 -79.86969 24549 ft 200 kts 17°
2026-04-27 22:09 27.51171 -79.86338 24891 ft 197 kts 17°
2026-04-27 22:09 27.52412 -79.85714 25231 ft 194 kts 17°
2026-04-27 22:09 27.53632 -79.85095 25576 ft 191 kts 17°
2026-04-27 22:09 27.54831 -79.84478 25930 ft 188 kts 17°
2026-04-27 22:10 27.56004 -79.83867 26278 ft 184 kts 17°
2026-04-27 22:10 27.57150 -79.83263 26634 ft 180 kts 17°
2026-04-27 22:10 27.58267 -79.82666 26992 ft 175 kts 17°
2026-04-27 22:10 27.59354 -79.82079 27354 ft 170 kts 17°
2026-04-27 22:11 27.60404 -79.81502 27717 ft 165 kts 17°
2026-04-27 22:11 27.61417 -79.80937 28082 ft 160 kts 17°
2026-04-27 22:11 27.62389 -79.80383 28450 ft 153 kts 17°
2026-04-27 22:11 27.63306 -79.79849 28817 ft 147 kts 17°
2026-04-27 22:12 27.64192 -79.79329 29121 ft 144 kts 18°
2026-04-27 22:12 27.65141 -79.78810 29157 ft 158 kts 17°
2026-04-27 22:12 27.66176 -79.78269 29227 ft 170 kts 17°
2026-04-27 22:12 27.67288 -79.77703 29293 ft 181 kts 17°
2026-04-27 22:13 27.68482 -79.77117 29358 ft 192 kts 15°
2026-04-27 22:13 27.69772 -79.76611 29410 ft 202 kts 13°
2026-04-27 22:13 27.71136 -79.76074 29457 ft 212 kts 15°
2026-04-27 22:13 27.72536 -79.75489 29658 ft 214 kts 15°
2026-04-27 22:14 27.73901 -79.74918 30103 ft 205 kts 15°
2026-04-27 22:14 27.75281 -79.74351 30115 ft 216 kts 15°
2026-04-27 22:14 27.76727 -79.73754 30128 ft 226 kts 15°
2026-04-27 22:14 27.78227 -79.73132 30125 ft 233 kts 15°
2026-04-27 22:15 27.79772 -79.72491 30128 ft 240 kts 16°
2026-04-27 22:15 27.81361 -79.71833 30131 ft 245 kts 16°
2026-04-27 22:15 27.82987 -79.71161 30128 ft 251 kts 16°
2026-04-27 22:15 27.84638 -79.70476 30130 ft 256 kts 16°
2026-04-27 22:16 27.86304 -79.69786 30124 ft 261 kts 16°
2026-04-27 22:16 27.88021 -79.69074 30126 ft 266 kts 16°
2026-04-27 22:16 27.89776 -79.68346 30128 ft 271 kts 16°
2026-04-27 22:16 27.91550 -79.67610 30125 ft 276 kts 16°
2026-04-27 22:17 27.93350 -79.66797 30130 ft 279 kts 20°
2026-04-27 22:17 27.95133 -79.65876 30128 ft 283 kts 21°
2026-04-27 22:17 27.96927 -79.64923 30128 ft 286 kts 21°
2026-04-27 22:17 27.98756 -79.64031 30126 ft 287 kts 17°
2026-04-27 22:18 28.00658 -79.63334 30132 ft 288 kts 14°
2026-04-27 22:18 28.02567 -79.62606 30131 ft 291 kts 17°
2026-04-27 22:18 28.04467 -79.61797 30133 ft 292 kts 18°
2026-04-27 22:18 28.06350 -79.60988 30134 ft 294 kts 17°
2026-04-27 22:19 28.08267 -79.60162 30133 ft 295 kts 18°
2026-04-27 22:19 28.10195 -79.59327 30134 ft 297 kts 18°
2026-04-27 22:19 28.12129 -79.58488 30135 ft 298 kts 18°
2026-04-27 22:19 28.14067 -79.57646 30136 ft 299 kts 18°
2026-04-27 22:20 28.16012 -79.56799 30140 ft 300 kts 18°
2026-04-27 22:20 28.17962 -79.55951 30140 ft 300 kts 18°
2026-04-27 22:20 28.19915 -79.55101 30141 ft 301 kts 18°
2026-04-27 22:21 28.23858 -79.53512 30141 ft 300 kts 13°
2026-04-27 22:21 28.25868 -79.52862 30141 ft 300 kts 14°
2026-04-27 22:21 28.27853 -79.52091 30153 ft 302 kts 19°
2026-04-27 22:22 28.31762 -79.50365 30152 ft 301 kts 17°
2026-04-27 22:22 28.35706 -79.48746 30153 ft 301 kts 17°
2026-04-27 22:23 28.39613 -79.47100 30159 ft 301 kts 17°
2026-04-27 22:23 28.43551 -79.45456 30159 ft 301 kts 18°
2026-04-27 22:24 28.47481 -79.43808 30157 ft 301 kts 18°
2026-04-27 22:24 28.51390 -79.42168 30164 ft 301 kts 18°
2026-04-27 22:24 28.53355 -79.41344 30164 ft 300 kts 19°
2026-04-27 22:25 28.55313 -79.40519 30174 ft 301 kts 19°
2026-04-27 22:25 28.57270 -79.39696 30174 ft 299 kts 18°
2026-04-27 22:25 28.59225 -79.38875 30174 ft 300 kts 18°
2026-04-27 22:25 28.61176 -79.38052 30177 ft 298 kts 18°
2026-04-27 22:26 28.63132 -79.37230 30174 ft 299 kts 18°
2026-04-27 22:26 28.65080 -79.36408 30175 ft 298 kts 19°
2026-04-27 22:26 28.67031 -79.35586 30171 ft 299 kts 18°
2026-04-27 22:26 28.68956 -79.34776 30175 ft 298 kts 19°
2026-04-27 22:27 28.70904 -79.33955 30173 ft 299 kts 18°
2026-04-27 22:27 28.72856 -79.33132 30179 ft 298 kts 18°
2026-04-27 22:27 28.74803 -79.32312 30177 ft 299 kts 19°
2026-04-27 22:27 28.76750 -79.31489 30179 ft 299 kts 18°
2026-04-27 22:28 28.78700 -79.30669 30179 ft 299 kts 19°
2026-04-27 22:28 28.80653 -79.29844 30181 ft 299 kts 18°
2026-04-27 22:28 28.82610 -79.29018 30186 ft 299 kts 19°
2026-04-27 22:28 28.84557 -79.28194 30190 ft 298 kts 17°
2026-04-27 22:29 28.86500 -79.27372 30184 ft 298 kts 18°
2026-04-27 22:29 28.88442 -79.26550 30186 ft 297 kts 18°
2026-04-27 22:29 28.90382 -79.25730 30184 ft 297 kts 19°
2026-04-27 22:29 28.92300 -79.24917 30187 ft 297 kts 18°
2026-04-27 22:30 28.94237 -79.24096 30188 ft 297 kts 19°
2026-04-27 22:30 28.96178 -79.23273 30189 ft 297 kts 18°
2026-04-27 22:30 28.98110 -79.22455 30188 ft 297 kts 18°
2026-04-27 22:30 29.00049 -79.21633 30189 ft 297 kts 19°
2026-04-27 22:31 29.01982 -79.20812 30189 ft 297 kts 18°
2026-04-27 22:31 29.03921 -79.19992 30188 ft 297 kts 18°
2026-04-27 22:31 29.05858 -79.19170 30193 ft 297 kts 18°
2026-04-27 22:31 29.07796 -79.18345 30193 ft 297 kts 19°
2026-04-27 22:32 29.09737 -79.17521 30193 ft 297 kts 18°
2026-04-27 22:32 29.11675 -79.16699 30195 ft 298 kts 18°
2026-04-27 22:32 29.13623 -79.15871 30196 ft 299 kts 17°
2026-04-27 22:32 29.15576 -79.15040 30199 ft 299 kts 17°
2026-04-27 22:33 29.17528 -79.14210 30200 ft 300 kts 17°
2026-04-27 22:33 29.19464 -79.13385 30201 ft 300 kts 18°
2026-04-27 22:33 29.21422 -79.12550 30198 ft 300 kts 17°
2026-04-27 22:34 29.25352 -79.10876 30199 ft 301 kts 17°
2026-04-27 22:34 29.29284 -79.09198 30203 ft 301 kts 18°
2026-04-27 22:35 29.33218 -79.07520 30204 ft 301 kts 18°
2026-04-27 22:35 29.37149 -79.05839 30205 ft 301 kts 19°
2026-04-27 22:35 29.39099 -79.05009 30224 ft 296 kts 18°
2026-04-27 22:36 29.40994 -79.04198 30221 ft 295 kts 18°
2026-04-27 22:36 29.42915 -79.03375 30219 ft 295 kts 18°
2026-04-27 22:36 29.44839 -79.02552 30221 ft 295 kts 18°
2026-04-27 22:36 29.46765 -79.01727 30220 ft 295 kts 18°
2026-04-27 22:37 29.48687 -79.00903 30224 ft 295 kts 18°
2026-04-27 22:37 29.50610 -79.00079 30223 ft 295 kts 18°
2026-04-27 22:37 29.52535 -78.99255 30224 ft 295 kts 18°
2026-04-27 22:37 29.54453 -78.98432 30223 ft 295 kts 18°
2026-04-27 22:38 29.56379 -78.97605 30222 ft 295 kts 18°
2026-04-27 22:38 29.58304 -78.96778 30221 ft 295 kts 18°
2026-04-27 22:38 29.60226 -78.95953 30222 ft 295 kts 18°
2026-04-27 22:38 29.62148 -78.95129 30221 ft 295 kts 18°
2026-04-27 22:39 29.64073 -78.94301 30224 ft 295 kts 18°
2026-04-27 22:39 29.65971 -78.93485 30226 ft 295 kts 18°
2026-04-27 22:39 29.67900 -78.92657 30226 ft 296 kts 17°
2026-04-27 22:39 29.69826 -78.91828 30226 ft 296 kts 18°
2026-04-27 22:40 29.71762 -78.90994 30230 ft 297 kts 18°
2026-04-27 22:40 29.73693 -78.90163 30230 ft 297 kts 18°
2026-04-27 22:40 29.75629 -78.89330 30230 ft 297 kts 17°
2026-04-27 22:40 29.77311 -78.87997 30270 ft 292 kts 46°
2026-04-27 22:41 29.78243 -78.85974 30173 ft 293 kts 65°
2026-04-27 22:41 29.78956 -78.83732 30058 ft 301 kts 66°
2026-04-27 22:41 29.79658 -78.81448 30137 ft 301 kts 68°
2026-04-27 22:41 29.80311 -78.79141 30013 ft 307 kts 66°
2026-04-27 22:42 29.81273 -78.76926 29804 ft 309 kts 52°
2026-04-27 22:42 29.82758 -78.75182 29795 ft 303 kts 33°
2026-04-27 22:42 29.84625 -78.74134 29791 ft 297 kts 14°
2026-04-27 22:42 29.86659 -78.73888 29787 ft 294 kts 354°
2026-04-27 22:43 29.88637 -78.74387 29785 ft 290 kts 345°
2026-04-27 22:43 29.90653 -78.74558 29774 ft 294 kts
2026-04-27 22:43 29.92645 -78.74022 29787 ft 297 kts 15°
2026-04-27 22:43 29.94565 -78.73119 29789 ft 299 kts 20°
2026-04-27 22:44 29.96491 -78.72210 29788 ft 299 kts 17°
2026-04-27 22:44 29.97788 -78.71670 29788 ft 299 kts 16°
2026-04-27 22:44 29.99757 -78.70879 29789 ft 300 kts 16°
2026-04-27 22:45 30.04311 -78.68918 29798 ft 301 kts 17°
2026-04-27 22:45 30.06276 -78.68080 29798 ft 300 kts 17°
2026-04-27 22:45 30.07605 -78.67519 29799 ft 300 kts 17°
2026-04-27 22:46 30.11503 -78.65853 29800 ft 301 kts 17°
2026-04-27 22:46 30.15430 -78.64177 29805 ft 301 kts 17°
2026-04-27 22:47 30.19358 -78.62497 29806 ft 301 kts 17°
2026-04-27 22:47 30.23282 -78.60817 29806 ft 301 kts 17°
2026-04-27 22:48 30.27212 -78.59134 29809 ft 301 kts 17°
2026-04-27 22:48 30.31145 -78.57445 29809 ft 301 kts 17°
2026-04-27 22:49 30.35076 -78.55757 29812 ft 301 kts 17°
2026-04-27 22:49 30.38981 -78.54080 29812 ft 301 kts 17°
2026-04-27 22:50 30.42913 -78.52389 29809 ft 301 kts 17°
2026-04-27 22:50 30.46841 -78.50699 29804 ft 302 kts 15°
2026-04-27 22:51 30.50798 -78.48997 29812 ft 303 kts 15°
2026-04-27 22:51 30.54766 -78.47286 29813 ft 305 kts 15°
2026-04-27 22:51 30.56748 -78.46431 29974 ft 299 kts 15°
2026-04-27 22:52 30.58654 -78.45603 30162 ft 295 kts 15°
2026-04-27 22:52 30.60587 -78.44773 30164 ft 297 kts 15°
2026-04-27 22:52 30.62530 -78.43935 30165 ft 299 kts 15°
2026-04-27 22:52 30.64482 -78.43089 30166 ft 300 kts 15°
2026-04-27 22:53 30.66443 -78.42241 30174 ft 301 kts 15°
2026-04-27 22:53 30.70387 -78.40534 30181 ft 303 kts 15°
2026-04-27 22:54 30.74349 -78.38821 30182 ft 305 kts 15°
2026-04-27 22:54 30.78334 -78.37095 30186 ft 306 kts 15°
2026-04-27 22:55 30.82333 -78.35361 30182 ft 307 kts 15°
2026-04-27 22:55 30.86343 -78.33620 30187 ft 308 kts 15°
2026-04-27 22:56 30.90339 -78.31881 30193 ft 308 kts 15°
2026-04-27 22:56 30.94360 -78.30132 30195 ft 309 kts 15°
2026-04-27 22:57 30.98386 -78.28380 30188 ft 309 kts 15°
2026-04-27 22:57 31.02413 -78.26626 30192 ft 309 kts 15°
2026-04-27 22:58 31.06437 -78.24871 30196 ft 309 kts 15°
2026-04-27 22:58 31.10464 -78.23115 30196 ft 309 kts 15°
2026-04-27 22:59 31.14489 -78.21357 30193 ft 309 kts 15°
2026-04-27 22:59 31.18515 -78.19594 30193 ft 309 kts 15°
2026-04-27 23:00 31.24554 -78.16951 30195 ft 309 kts 15°
2026-04-27 23:00 31.28567 -78.15190 30202 ft 307 kts 14°
2026-04-27 23:01 31.32533 -78.13452 30201 ft 306 kts 14°
2026-04-27 23:01 31.36513 -78.11705 30200 ft 305 kts 14°
2026-04-27 23:02 31.40482 -78.09962 30196 ft 304 kts 14°
2026-04-27 23:02 31.44450 -78.08218 30199 ft 305 kts 14°
2026-04-27 23:03 31.48441 -78.06459 30203 ft 306 kts 15°
2026-04-27 23:03 31.52430 -78.04702 30206 ft 306 kts 14°
2026-04-27 23:04 31.56408 -78.02945 30202 ft 304 kts 14°
2026-04-27 23:04 31.60365 -78.01197 30201 ft 303 kts 14°
2026-04-27 23:05 31.64310 -77.99458 30209 ft 303 kts 14°
2026-04-27 23:05 31.68262 -77.97709 30209 ft 304 kts 14°
2026-04-27 23:06 31.72199 -77.95967 30209 ft 305 kts 15°
2026-04-27 23:06 31.76128 -77.94224 30214 ft 298 kts 15°
2026-04-27 23:07 31.78065 -77.93366 30216 ft 298 kts 14°
2026-04-27 23:07 31.80009 -77.92506 30216 ft 299 kts 15°
2026-04-27 23:07 31.81954 -77.91640 30217 ft 299 kts 15°
2026-04-27 23:07 31.83903 -77.90775 30217 ft 299 kts 15°
2026-04-27 23:08 31.85849 -77.89910 30217 ft 299 kts 15°
2026-04-27 23:08 31.87800 -77.89043 30217 ft 300 kts 15°
2026-04-27 23:08 31.89752 -77.88176 30218 ft 300 kts 15°
2026-04-27 23:08 31.91705 -77.87306 30218 ft 300 kts 15°
2026-04-27 23:09 31.93656 -77.86440 30223 ft 300 kts 14°
2026-04-27 23:09 31.95609 -77.85571 30223 ft 300 kts 15°
2026-04-27 23:09 31.97564 -77.84699 30223 ft 300 kts 15°
2026-04-27 23:09 31.99516 -77.83831 30224 ft 300 kts 15°
2026-04-27 23:10 32.01468 -77.82961 30220 ft 300 kts 15°
2026-04-27 23:10 32.03425 -77.82088 30233 ft 301 kts 14°
2026-04-27 23:10 32.07344 -77.80338 30225 ft 301 kts 14°
2026-04-27 23:11 32.11242 -77.78596 30222 ft 301 kts 14°
2026-04-27 23:11 32.15164 -77.76842 30222 ft 301 kts 14°
2026-04-27 23:12 32.19084 -77.75087 30228 ft 301 kts 14°
2026-04-27 23:12 32.23007 -77.73332 30228 ft 301 kts 14°
2026-04-27 23:13 32.26934 -77.71570 30230 ft 301 kts 14°
2026-04-27 23:13 32.30833 -77.69822 30233 ft 302 kts 14°
2026-04-27 23:14 32.34758 -77.68060 30235 ft 301 kts 14°
2026-04-27 23:14 32.38675 -77.66296 30230 ft 301 kts 14°
2026-04-27 23:15 32.42590 -77.64534 30229 ft 301 kts 14°
2026-04-27 23:15 32.44544 -77.63654 30237 ft 300 kts 14°
2026-04-27 23:15 32.46499 -77.62773 30237 ft 300 kts 14°
2026-04-27 23:16 32.48449 -77.61893 30240 ft 300 kts 14°
2026-04-27 23:16 32.50374 -77.61026 30240 ft 300 kts 14°
2026-04-27 23:16 32.52324 -77.60148 30240 ft 300 kts 14°
2026-04-27 23:16 32.54276 -77.59266 30251 ft 300 kts 14°
2026-04-27 23:17 32.56227 -77.58385 30241 ft 300 kts 14°
2026-04-27 23:17 32.58168 -77.57509 30242 ft 299 kts 14°
2026-04-27 23:17 32.60099 -77.56635 30242 ft 299 kts 14°
2026-04-27 23:17 32.62060 -77.55750 30241 ft 298 kts 14°
2026-04-27 23:18 32.63442 -77.55125 30241 ft 298 kts 14°
2026-04-27 23:18 32.64724 -77.54545 30243 ft 298 kts 14°
2026-04-27 23:18 32.65368 -77.54252 30243 ft 298 kts 14°
2026-04-27 23:18 32.66397 -77.53785 30243 ft 298 kts 14°
2026-04-27 23:19 32.67468 -77.53299 30240 ft 298 kts 14°
2026-04-27 23:19 32.68454 -77.52854 30240 ft 298 kts 14°
2026-04-27 23:19 32.69355 -77.52446 30240 ft 298 kts 14°
2026-04-27 23:19 32.70063 -77.52126 30240 ft 298 kts 14°
2026-04-27 23:20 32.70706 -77.51833 30240 ft 298 kts 14°
2026-04-27 23:20 32.71478 -77.51483 30240 ft 297 kts 14°
2026-04-27 23:20 32.72314 -77.51103 30240 ft 297 kts 14°
2026-04-27 23:20 32.73278 -77.50666 30240 ft 297 kts 14°
2026-04-27 23:21 32.75206 -77.49792 30242 ft 297 kts 14°
2026-04-27 23:21 32.76535 -77.49188 30242 ft 297 kts 14°
2026-04-27 23:21 32.77532 -77.48734 30242 ft 297 kts 14°
2026-04-27 23:21 32.78545 -77.48274 30242 ft 297 kts 14°
2026-04-27 23:22 32.79509 -77.47838 30245 ft 297 kts 14°
2026-04-27 23:22 32.80575 -77.47355 30245 ft 297 kts 14°
2026-04-27 23:22 32.81739 -77.46828 30245 ft 296 kts 14°
2026-04-27 23:22 32.83660 -77.45955 30245 ft 297 kts 14°
2026-04-27 23:23 32.85404 -77.45159 30250 ft 297 kts 14°
2026-04-27 23:23 32.87332 -77.44284 30250 ft 297 kts 14°
2026-04-27 23:23 32.89261 -77.43406 30250 ft 297 kts 14°
2026-04-27 23:23 32.91188 -77.42528 30251 ft 297 kts 14°
2026-04-27 23:24 32.93121 -77.41649 30247 ft 297 kts 14°
2026-04-27 23:24 32.95024 -77.40779 30247 ft 297 kts 14°
2026-04-27 23:24 32.96953 -77.39899 30248 ft 297 kts 14°
2026-04-27 23:24 32.98882 -77.39020 30247 ft 297 kts 14°
2026-04-27 23:25 33.00807 -77.38139 30292 ft 295 kts 14°
2026-04-27 23:25 33.02737 -77.37257 30250 ft 297 kts 14°
2026-04-27 23:25 33.04666 -77.36374 30253 ft 297 kts 14°
2026-04-27 23:25 33.06600 -77.35486 30252 ft 297 kts 14°
2026-04-27 23:26 33.08531 -77.34599 30256 ft 297 kts 14°
2026-04-27 23:26 33.10463 -77.33712 30256 ft 297 kts 14°
2026-04-27 23:26 33.12397 -77.32827 30256 ft 297 kts 14°
2026-04-27 23:26 33.14331 -77.31943 30256 ft 298 kts 14°
2026-04-27 23:27 33.16253 -77.31135 30260 ft 294 kts
2026-04-27 23:27 33.18234 -77.30563 30257 ft 292 kts
2026-04-27 23:27 33.20223 -77.30069 30257 ft 292 kts
2026-04-27 23:27 33.22215 -77.29592 30257 ft 292 kts
2026-04-27 23:28 33.24139 -77.28737 30250 ft 302 kts 22°
2026-04-27 23:28 33.25906 -77.27344 30256 ft 305 kts 28°
2026-04-27 23:28 33.28912 -77.25139 30256 ft 299 kts 18°
2026-04-27 23:29 33.31474 -77.24020 30262 ft 294 kts 11°
2026-04-27 23:29 33.33422 -77.23239 30262 ft 296 kts 13°
2026-04-27 23:29 33.35347 -77.22329 30269 ft 298 kts 15°
2026-04-27 23:29 33.37263 -77.21404 30270 ft 297 kts 14°
2026-04-27 23:30 33.39192 -77.20523 30267 ft 296 kts 13°
2026-04-27 23:30 33.41116 -77.19650 30267 ft 296 kts 14°
2026-04-27 23:30 33.43042 -77.18759 30267 ft 296 kts 14°
2026-04-27 23:30 33.44964 -77.17869 30272 ft 296 kts 14°
2026-04-27 23:31 33.46889 -77.16982 30269 ft 296 kts 14°
2026-04-27 23:31 33.48784 -77.16107 30269 ft 296 kts 14°
2026-04-27 23:31 33.50709 -77.15217 30269 ft 296 kts 14°
2026-04-27 23:31 33.52628 -77.14329 30269 ft 296 kts 14°
2026-04-27 23:32 33.54557 -77.13436 30287 ft 296 kts 14°
2026-04-27 23:32 33.55830 -77.12847 30276 ft 296 kts 14°
2026-04-27 23:32 33.57756 -77.11955 30277 ft 296 kts 14°
2026-04-27 23:32 33.59675 -77.11065 30276 ft 296 kts 14°
2026-04-27 23:33 33.61595 -77.10176 30276 ft 295 kts 14°
2026-04-27 23:33 33.63513 -77.09286 30276 ft 295 kts 14°
2026-04-27 23:33 33.65429 -77.08399 30279 ft 295 kts 14°
2026-04-27 23:33 33.67343 -77.07512 30276 ft 295 kts 14°
2026-04-27 23:34 33.69258 -77.06622 30276 ft 295 kts 14°
2026-04-27 23:34 33.71170 -77.05735 30276 ft 295 kts 14°
2026-04-27 23:34 33.73083 -77.04846 30276 ft 295 kts 14°
2026-04-27 23:34 33.74994 -77.03957 30284 ft 295 kts 14°
2026-04-27 23:35 33.76907 -77.03069 30280 ft 295 kts 14°
2026-04-27 23:35 33.78821 -77.02178 30288 ft 295 kts 14°
2026-04-27 23:35 33.80737 -77.01284 30281 ft 295 kts 14°
2026-04-27 23:35 33.82648 -77.00394 30282 ft 295 kts 14°
2026-04-27 23:36 33.84559 -76.99503 30284 ft 295 kts 14°
2026-04-27 23:36 33.86471 -76.98611 30284 ft 295 kts 14°
2026-04-27 23:36 33.88386 -76.97718 30284 ft 295 kts 14°
2026-04-27 23:36 33.90296 -76.96825 30284 ft 294 kts 14°
2026-04-27 23:37 33.92180 -76.95946 30281 ft 294 kts 14°
2026-04-27 23:37 33.94091 -76.95055 30281 ft 294 kts 14°
2026-04-27 23:37 33.96000 -76.94163 30281 ft 294 kts 14°
2026-04-27 23:37 33.97912 -76.93269 30281 ft 294 kts 14°
2026-04-27 23:38 33.99821 -76.92377 30281 ft 294 kts 14°
2026-04-27 23:38 34.01730 -76.91483 30281 ft 294 kts 14°
2026-04-27 23:38 34.03641 -76.90588 30290 ft 294 kts 14°
2026-04-27 23:38 34.05551 -76.89693 30290 ft 295 kts 14°
2026-04-27 23:39 34.07463 -76.88797 30293 ft 295 kts 14°
2026-04-27 23:39 34.09375 -76.87899 30293 ft 295 kts 14°
2026-04-27 23:39 34.11286 -76.87001 30293 ft 295 kts 14°
2026-04-27 23:39 34.13201 -76.86103 30290 ft 296 kts 14°
2026-04-27 23:40 34.15117 -76.85204 30293 ft 295 kts 14°
2026-04-27 23:40 34.17032 -76.84303 30293 ft 295 kts 14°
2026-04-27 23:40 34.18941 -76.83405 30293 ft 295 kts 14°
2026-04-27 23:40 34.20855 -76.82506 30293 ft 295 kts 14°
2026-04-27 23:41 34.22769 -76.81605 30292 ft 294 kts 14°
2026-04-27 23:41 34.24675 -76.80709 30292 ft 294 kts 14°
2026-04-27 23:41 34.26584 -76.79809 30292 ft 294 kts 14°
2026-04-27 23:41 34.28468 -76.78922 30291 ft 294 kts 14°
2026-04-27 23:42 34.30378 -76.78022 30292 ft 294 kts 14°
2026-04-27 23:42 34.32289 -76.77120 30292 ft 294 kts 14°
2026-04-27 23:42 34.34195 -76.76221 30292 ft 294 kts 14°
2026-04-27 23:42 34.36102 -76.75320 30292 ft 294 kts 14°
2026-04-27 23:43 34.38011 -76.74416 30298 ft 294 kts 14°
2026-04-27 23:43 34.39923 -76.73514 30298 ft 294 kts 14°
2026-04-27 23:43 34.41830 -76.72611 30298 ft 294 kts 14°
2026-04-27 23:43 34.43741 -76.71707 30298 ft 294 kts 14°
2026-04-27 23:44 34.45623 -76.70816 30301 ft 294 kts 14°
2026-04-27 23:44 34.47528 -76.69913 30301 ft 294 kts 14°
2026-04-27 23:44 34.49435 -76.69009 30301 ft 294 kts 14°
2026-04-27 23:44 34.51341 -76.68108 30301 ft 294 kts 14°
2026-04-27 23:45 34.53249 -76.67204 30302 ft 294 kts 14°
2026-04-27 23:45 34.55156 -76.66298 30303 ft 294 kts 14°
2026-04-27 23:45 34.57060 -76.65395 30303 ft 294 kts 14°
2026-04-27 23:45 34.58964 -76.64491 30302 ft 294 kts 14°
2026-04-27 23:46 34.60871 -76.63585 30302 ft 294 kts 14°
2026-04-27 23:46 34.62775 -76.62680 30302 ft 294 kts 14°
2026-04-27 23:46 34.64681 -76.61772 30302 ft 294 kts 14°
2026-04-27 23:46 34.66585 -76.60864 30302 ft 294 kts 14°
2026-04-27 23:47 34.68489 -76.59959 30299 ft 294 kts 14°
2026-04-27 23:47 34.70394 -76.59051 30299 ft 294 kts 14°
2026-04-27 23:47 34.72299 -76.58142 30299 ft 294 kts 14°
2026-04-27 23:47 34.74204 -76.57234 30299 ft 294 kts 14°
2026-04-27 23:48 34.76084 -76.56336 30302 ft 294 kts 14°
2026-04-27 23:48 34.77991 -76.55427 30302 ft 294 kts 14°
2026-04-27 23:48 34.79892 -76.54520 30302 ft 294 kts 14°
2026-04-27 23:48 34.81793 -76.53611 30303 ft 294 kts 14°
2026-04-27 23:49 34.83697 -76.52702 30304 ft 294 kts 14°
2026-04-27 23:49 34.85599 -76.51792 30304 ft 294 kts 14°
2026-04-27 23:49 34.87500 -76.50883 30305 ft 294 kts 14°
2026-04-27 23:49 34.89400 -76.49973 30304 ft 294 kts 14°
2026-04-27 23:50 34.91304 -76.49062 30310 ft 293 kts 14°
2026-04-27 23:50 34.93205 -76.48150 30312 ft 293 kts 14°
2026-04-27 23:50 34.95100 -76.47240 30312 ft 293 kts 14°
2026-04-27 23:50 34.96994 -76.46332 30313 ft 292 kts 14°
2026-04-27 23:51 34.98893 -76.45419 30309 ft 292 kts 14°
2026-04-27 23:51 35.00765 -76.44521 30320 ft 292 kts 14°
2026-04-27 23:51 35.02654 -76.43613 30321 ft 292 kts 14°
2026-04-27 23:51 35.04547 -76.42702 30322 ft 292 kts 14°
2026-04-27 23:52 35.06435 -76.41796 30316 ft 292 kts 14°
2026-04-27 23:52 35.08327 -76.40887 30316 ft 291 kts 14°
2026-04-27 23:52 35.10210 -76.39979 30318 ft 291 kts 14°
2026-04-27 23:52 35.12097 -76.39072 30318 ft 291 kts 14°
2026-04-27 23:53 35.13981 -76.38164 30321 ft 291 kts 14°
2026-04-27 23:53 35.15867 -76.37255 30321 ft 291 kts 14°
2026-04-27 23:53 35.17751 -76.36347 30321 ft 291 kts 14°
2026-04-27 23:53 35.19637 -76.35436 30321 ft 291 kts 14°
2026-04-27 23:54 35.21520 -76.34525 30318 ft 291 kts 14°
2026-04-27 23:54 35.23409 -76.33613 30318 ft 291 kts 14°
2026-04-27 23:54 35.25304 -76.32757 30315 ft 290 kts 13°
2026-04-27 23:54 35.27153 -76.31832 30317 ft 291 kts 15°
2026-04-27 23:55 35.29024 -76.30877 30320 ft 290 kts 14°
2026-04-27 23:55 35.30907 -76.29974 30320 ft 290 kts 13°
2026-04-27 23:55 35.32797 -76.29074 30320 ft 290 kts 14°
2026-04-27 23:55 35.34679 -76.28160 30320 ft 291 kts 14°
2026-04-27 23:56 35.36558 -76.27246 30314 ft 291 kts 14°
2026-04-27 23:56 35.38441 -76.26334 30315 ft 291 kts 14°
2026-04-27 23:56 35.40300 -76.25433 30315 ft 291 kts 14°
2026-04-27 23:56 35.42185 -76.24518 30315 ft 291 kts 14°
2026-04-27 23:57 35.44066 -76.23605 30321 ft 291 kts 14°
2026-04-27 23:57 35.45951 -76.22689 30334 ft 291 kts 14°
2026-04-27 23:57 35.47837 -76.21771 30324 ft 291 kts 14°
2026-04-27 23:57 35.49717 -76.20854 30324 ft 291 kts 14°
2026-04-27 23:58 35.51599 -76.19940 30325 ft 291 kts 14°
2026-04-27 23:58 35.53480 -76.19023 30324 ft 291 kts 14°
2026-04-27 23:58 35.55360 -76.18106 30327 ft 291 kts 14°
2026-04-27 23:58 35.57238 -76.17191 30327 ft 290 kts 14°
2026-04-27 23:59 35.59116 -76.16274 30327 ft 290 kts 14°
2026-04-27 23:59 35.60997 -76.15357 30327 ft 290 kts 14°
2026-04-27 23:59 35.62850 -76.14455 30324 ft 290 kts 14°
2026-04-27 23:59 35.64727 -76.13536 30328 ft 290 kts 14°
2026-04-28 00:00 35.66605 -76.12620 30327 ft 290 kts 14°
2026-04-28 00:00 35.68483 -76.11702 30327 ft 290 kts 14°
2026-04-28 00:00 35.70355 -76.10787 30330 ft 290 kts 14°
2026-04-28 00:00 35.72229 -76.09869 30330 ft 289 kts 14°
2026-04-28 00:01 35.74099 -76.08954 30331 ft 289 kts 14°
2026-04-28 00:01 35.74671 -76.08674 30331 ft 289 kts 14°
2026-04-28 00:01 35.75293 -76.08368 30331 ft 288 kts 14°
2026-04-28 00:01 35.77140 -76.07459 30329 ft 284 kts 14°
2026-04-28 00:02 35.78948 -76.06575 30326 ft 283 kts 14°
2026-04-28 00:02 35.80780 -76.05678 30325 ft 284 kts 14°
2026-04-28 00:02 35.82615 -76.04776 30325 ft 284 kts 14°
2026-04-28 00:02 35.84454 -76.03872 30326 ft 284 kts 14°
2026-04-28 00:03 35.86296 -76.02966 30329 ft 285 kts 14°
2026-04-28 00:03 35.88135 -76.02063 30330 ft 285 kts 14°
2026-04-28 00:03 35.89978 -76.01159 30330 ft 285 kts 14°
2026-04-28 00:03 35.91822 -76.00252 30330 ft 285 kts 14°
2026-04-28 00:04 35.93667 -75.99342 30329 ft 286 kts 14°
2026-04-28 00:04 35.97360 -75.97525 30330 ft 286 kts 14°
2026-04-28 00:04 35.99211 -75.96612 30330 ft 286 kts 14°
2026-04-28 00:05 36.01057 -75.95702 30333 ft 286 kts 14°
2026-04-28 00:05 36.02907 -75.94787 30333 ft 286 kts 14°
2026-04-28 00:05 36.04751 -75.93875 30333 ft 286 kts 14°
2026-04-28 00:05 36.05976 -75.93271 30325 ft 286 kts 14°
2026-04-28 00:06 36.08445 -75.92050 30322 ft 286 kts 14°
2026-04-28 00:06 36.10291 -75.91136 30323 ft 286 kts 14°
2026-04-28 00:06 36.12115 -75.90234 30323 ft 286 kts 14°
2026-04-28 00:06 36.13959 -75.89320 30328 ft 286 kts 14°
2026-04-28 00:07 36.15803 -75.88408 30326 ft 286 kts 14°
2026-04-28 00:07 36.17652 -75.87494 30325 ft 286 kts 14°
2026-04-28 00:07 36.19499 -75.86577 30325 ft 286 kts 14°
2026-04-28 00:07 36.21345 -75.85662 30325 ft 286 kts 14°
2026-04-28 00:08 36.23192 -75.84746 30324 ft 286 kts 14°
2026-04-28 00:08 36.25039 -75.83828 30325 ft 286 kts 14°
2026-04-28 00:08 36.26885 -75.82912 30325 ft 286 kts 14°
2026-04-28 00:08 36.28729 -75.81996 30326 ft 286 kts 14°
2026-04-28 00:09 36.30578 -75.81074 30327 ft 286 kts 14°
2026-04-28 00:09 36.32426 -75.80154 30333 ft 286 kts 14°
2026-04-28 00:09 36.34274 -75.79235 30334 ft 286 kts 14°
2026-04-28 00:09 36.36118 -75.78315 30346 ft 286 kts 14°
2026-04-28 00:10 36.37963 -75.77395 30354 ft 285 kts 13°
2026-04-28 00:10 36.39797 -75.76480 30335 ft 284 kts 14°
2026-04-28 00:10 36.41624 -75.75569 30334 ft 282 kts 14°
2026-04-28 00:10 36.43420 -75.74671 30333 ft 281 kts 13°
2026-04-28 00:11 36.45241 -75.73766 30335 ft 283 kts 13°
2026-04-28 00:11 36.46476 -75.73150 30335 ft 283 kts 14°
2026-04-28 00:11 36.48905 -75.71935 30336 ft 285 kts 14°
2026-04-28 00:11 36.50746 -75.71015 30337 ft 285 kts 14°
2026-04-28 00:12 36.52594 -75.70090 30338 ft 286 kts 14°
2026-04-28 00:12 36.54439 -75.69167 30338 ft 286 kts 14°
2026-04-28 00:12 36.56288 -75.68241 30341 ft 286 kts 14°
2026-04-28 00:12 36.58134 -75.67313 30341 ft 285 kts 14°
2026-04-28 00:13 36.59975 -75.66390 30335 ft 284 kts 14°
2026-04-28 00:13 36.61814 -75.65468 30338 ft 284 kts 14°
2026-04-28 00:13 36.63641 -75.64550 30338 ft 283 kts 14°
2026-04-28 00:13 36.65449 -75.63642 30335 ft 283 kts 14°
2026-04-28 00:14 36.67275 -75.62725 30337 ft 282 kts 14°
2026-04-28 00:14 36.69097 -75.61807 30337 ft 282 kts 14°
2026-04-28 00:14 36.70915 -75.60894 30337 ft 282 kts 13°
2026-04-28 00:14 36.72733 -75.59981 30336 ft 281 kts 13°
2026-04-28 00:15 36.74549 -75.59066 30336 ft 281 kts 14°
2026-04-28 00:15 36.76361 -75.58154 30335 ft 282 kts 14°
2026-04-28 00:15 36.78185 -75.57237 30336 ft 283 kts 14°
2026-04-28 00:15 36.80013 -75.56314 30336 ft 284 kts 14°
2026-04-28 00:16 36.81844 -75.55391 30334 ft 284 kts 14°
2026-04-28 00:16 36.83682 -75.54464 30342 ft 285 kts 14°
2026-04-28 00:16 36.85523 -75.53532 30342 ft 285 kts 14°
2026-04-28 00:16 36.87360 -75.52602 30342 ft 284 kts 14°
2026-04-28 00:17 36.89168 -75.51689 30342 ft 284 kts 14°
2026-04-28 00:17 36.91000 -75.50761 30342 ft 284 kts 14°
2026-04-28 00:17 36.92829 -75.49835 30341 ft 283 kts 14°
2026-04-28 00:17 36.94657 -75.48910 30336 ft 283 kts 14°
2026-04-28 00:18 36.96480 -75.47985 30335 ft 283 kts 14°
2026-04-28 00:18 36.98302 -75.47063 30335 ft 283 kts 14°
2026-04-28 00:18 37.00126 -75.46139 30335 ft 283 kts 14°
2026-04-28 00:18 37.01946 -75.45216 30335 ft 282 kts 14°
2026-04-28 00:19 37.03768 -75.44291 30338 ft 282 kts 14°
2026-04-28 00:19 37.05589 -75.43367 30339 ft 283 kts 14°
2026-04-28 00:19 37.06797 -75.42753 30338 ft 283 kts 14°
2026-04-28 00:19 37.08625 -75.41825 30338 ft 283 kts 13°
2026-04-28 00:20 37.10448 -75.40896 30337 ft 283 kts 13°
2026-04-28 00:20 37.12278 -75.39966 30337 ft 284 kts 13°
2026-04-28 00:20 37.14109 -75.39032 30338 ft 284 kts 14°
2026-04-28 00:20 37.15938 -75.38100 30338 ft 284 kts 13°
2026-04-28 00:21 37.17771 -75.37166 30340 ft 284 kts 14°
2026-04-28 00:21 37.19600 -75.36232 30340 ft 284 kts 14°
2026-04-28 00:21 37.21430 -75.35299 30338 ft 284 kts 14°
2026-04-28 00:21 37.23261 -75.34363 30338 ft 284 kts 14°
2026-04-28 00:22 37.25089 -75.33429 30338 ft 284 kts 14°
2026-04-28 00:22 37.26892 -75.32510 30338 ft 284 kts 13°
2026-04-28 00:22 37.28724 -75.31574 30344 ft 284 kts 14°
2026-04-28 00:22 37.30559 -75.30634 30344 ft 284 kts 14°
2026-04-28 00:23 37.32394 -75.29696 30344 ft 284 kts 13°
2026-04-28 00:23 37.34225 -75.28758 30344 ft 284 kts 14°
2026-04-28 00:23 37.36059 -75.27818 30344 ft 284 kts 14°
2026-04-28 00:23 37.37891 -75.26881 30344 ft 284 kts 14°
2026-04-28 00:24 37.39721 -75.25941 30341 ft 284 kts 14°
2026-04-28 00:24 37.41555 -75.24998 30341 ft 284 kts 14°
2026-04-28 00:24 37.43387 -75.24058 30341 ft 284 kts 14°
2026-04-28 00:24 37.45198 -75.23128 30343 ft 284 kts 14°
2026-04-28 00:25 37.47026 -75.22186 30343 ft 284 kts 14°
2026-04-28 00:25 37.48859 -75.21245 30343 ft 284 kts 14°
2026-04-28 00:25 37.50686 -75.20304 30343 ft 284 kts 14°
2026-04-28 00:25 37.52517 -75.19360 30343 ft 284 kts 14°
2026-04-28 00:26 37.54345 -75.18421 30346 ft 284 kts 14°
2026-04-28 00:26 37.56172 -75.17480 30346 ft 284 kts 14°
2026-04-28 00:26 37.58000 -75.16537 30346 ft 284 kts 14°
2026-04-28 00:26 37.59830 -75.15594 30346 ft 284 kts 14°
2026-04-28 00:27 37.61656 -75.14651 30346 ft 284 kts 14°
2026-04-28 00:27 37.63466 -75.13716 30346 ft 284 kts 14°
2026-04-28 00:27 37.65299 -75.12770 30346 ft 284 kts 14°
2026-04-28 00:27 37.67129 -75.11823 30346 ft 284 kts 14°
2026-04-28 00:28 37.68956 -75.10876 30343 ft 284 kts 14°
2026-04-28 00:28 37.70782 -75.09932 30354 ft 284 kts 14°
2026-04-28 00:28 37.72610 -75.08985 30349 ft 284 kts 14°
2026-04-28 00:28 37.74433 -75.08039 30350 ft 283 kts 14°
2026-04-28 00:29 37.76260 -75.07093 30345 ft 283 kts 14°
2026-04-28 00:29 37.78080 -75.06148 30355 ft 283 kts 14°
2026-04-28 00:29 37.79906 -75.05200 30352 ft 284 kts 13°
2026-04-28 00:29 37.81735 -75.04251 30352 ft 284 kts 13°
2026-04-28 00:30 37.83562 -75.03303 30347 ft 284 kts 13°
2026-04-28 00:30 37.85386 -75.02356 30352 ft 284 kts 13°
2026-04-28 00:30 37.87213 -75.01404 30352 ft 284 kts 13°
2026-04-28 00:30 37.89017 -75.00467 30343 ft 284 kts 13°
2026-04-28 00:31 37.90842 -74.99517 30352 ft 284 kts 13°
2026-04-28 00:31 37.92671 -74.98564 30362 ft 284 kts 13°
2026-04-28 00:31 37.94501 -74.97611 30352 ft 284 kts 13°
2026-04-28 00:31 37.96330 -74.96655 30353 ft 284 kts 13°
2026-04-28 00:32 37.98157 -74.95703 30352 ft 284 kts 13°
2026-04-28 00:32 37.99985 -74.94748 30352 ft 284 kts 13°
2026-04-28 00:32 38.01811 -74.93793 30352 ft 284 kts 13°
2026-04-28 00:32 38.03637 -74.92840 30352 ft 284 kts 13°
2026-04-28 00:33 38.05463 -74.91883 30352 ft 284 kts 13°
2026-04-28 00:33 38.07289 -74.90928 30352 ft 283 kts 13°
2026-04-28 00:33 38.09109 -74.89976 30352 ft 283 kts 13°
2026-04-28 00:33 38.10912 -74.89034 30352 ft 283 kts 13°
2026-04-28 00:34 38.12734 -74.88079 30356 ft 283 kts 13°
2026-04-28 00:34 38.14555 -74.87124 30362 ft 283 kts 13°
2026-04-28 00:34 38.16379 -74.86166 30363 ft 283 kts 13°
2026-04-28 00:34 38.18200 -74.85211 30363 ft 283 kts 13°
2026-04-28 00:35 38.20019 -74.84257 30359 ft 282 kts 13°
2026-04-28 00:35 38.21833 -74.83303 30359 ft 282 kts 13°
2026-04-28 00:35 38.23651 -74.82348 30359 ft 282 kts 13°
2026-04-28 00:35 38.25467 -74.81391 30359 ft 282 kts 13°
2026-04-28 00:36 38.27290 -74.80433 30359 ft 284 kts 13°
2026-04-28 00:36 38.29116 -74.79471 30360 ft 285 kts 13°
2026-04-28 00:36 38.30923 -74.78517 30363 ft 285 kts 13°
2026-04-28 00:36 38.32761 -74.77549 30364 ft 286 kts 13°
2026-04-28 00:37 38.34600 -74.76578 30364 ft 286 kts 13°
2026-04-28 00:37 38.36443 -74.75602 30366 ft 286 kts 13°
2026-04-28 00:37 38.38179 -74.74293 30354 ft 300 kts 30°
2026-04-28 00:37 38.39555 -74.72207 30351 ft 318 kts 49°
2026-04-28 00:38 38.40386 -74.69526 30353 ft 335 kts 68°
2026-04-28 00:38 38.40551 -74.66516 30354 ft 349 kts 87°
2026-04-28 00:38 38.40025 -74.63451 30353 ft 358 kts 103°
2026-04-28 00:39 38.38197 -74.57501 30354 ft 361 kts 108°
2026-04-28 00:39 38.36279 -74.51623 30355 ft 362 kts 108°
2026-04-28 00:40 38.34338 -74.45696 30352 ft 363 kts 108°
2026-04-28 00:40 38.32392 -74.39757 30352 ft 363 kts 108°
2026-04-28 00:41 38.30437 -74.33802 30359 ft 365 kts 108°
2026-04-28 00:41 38.28438 -74.27838 30347 ft 367 kts 108°
2026-04-28 00:42 38.26469 -74.21923 30344 ft 364 kts 108°
2026-04-28 00:42 38.24507 -74.16001 30343 ft 362 kts 108°
2026-04-28 00:43 38.22551 -74.10095 30340 ft 362 kts 108°
2026-04-28 00:43 38.20590 -74.04173 30340 ft 364 kts 108°
2026-04-28 00:44 38.18620 -73.98235 30354 ft 366 kts 107°
2026-04-28 00:44 38.16665 -73.92249 30348 ft 365 kts 103°
2026-04-28 00:45 38.15209 -73.86092 30347 ft 362 kts 99°
2026-04-28 00:45 38.14228 -73.79926 30336 ft 346 kts 80°
2026-04-28 00:46 38.14465 -73.73888 30330 ft 349 kts 84°
2026-04-28 00:46 38.14035 -73.67709 30333 ft 354 kts 87°
2026-04-28 00:47 38.13208 -73.61505 30329 ft 365 kts 104°
2026-04-28 00:47 38.11958 -73.58675 30328 ft 372 kts 123°
2026-04-28 00:47 38.10138 -73.56305 30329 ft 376 kts 137°
2026-04-28 00:48 38.06034 -73.52152 30330 ft 379 kts 141°
2026-04-28 00:48 38.01843 -73.48050 30329 ft 380 kts 142°
2026-04-28 00:49 37.97663 -73.43967 30325 ft 378 kts 141°
2026-04-28 00:49 37.93498 -73.39899 30324 ft 378 kts 141°
2026-04-28 00:50 37.89345 -73.35834 30314 ft 376 kts 143°
2026-04-28 00:50 37.87072 -73.34232 30314 ft 373 kts 161°
2026-04-28 00:50 37.84617 -73.33215 30318 ft 372 kts 168°
2026-04-28 00:51 37.79678 -73.31308 30311 ft 377 kts 157°
2026-04-28 00:51 37.77482 -73.29484 30336 ft 379 kts 137°
2026-04-28 00:51 37.75688 -73.27056 30317 ft 376 kts 122°
2026-04-28 00:51 37.74395 -73.24230 30313 ft 368 kts 107°
2026-04-28 00:52 37.73648 -73.21199 30313 ft 355 kts 92°
2026-04-28 00:52 37.73439 -73.18153 30311 ft 342 kts 78°
2026-04-28 00:52 37.73726 -73.15249 30312 ft 326 kts 64°
2026-04-28 00:52 37.74581 -73.12713 30313 ft 303 kts 45°
2026-04-28 00:53 37.75928 -73.10811 30316 ft 283 kts 28°
2026-04-28 00:53 37.77473 -73.09319 30317 ft 275 kts 22°
2026-04-28 00:53 37.79121 -73.08152 30311 ft 268 kts 15°